Volver al catálogo

DELTA 1 DEB

ActivoPO
NORAD 37647·DEBRIS·🇺🇸 United States

Lanzado Mar 5, 1978 desde Vandenberg Space Force Base

Loading…

Próximos Pases (próximas 24 horas)

TLE

ActualizadoSource: Space-Track

Época: Sep 14, 2026, 08:35 UTC

1 37647U 78026JJ  26257.35807702  .00000395  00000-0  39818-3 0  9993
2 37647  98.7657 299.4329 0232804 108.4194 254.2416 13.71078301648750

Sigue DELTA 1 DEB en tiempo real con AllMySat

Download on the App Store